Terminal Aerodrome Forecast
Issued by NWS

Home | Current Version | Previous Version | Graphics & Text | Print | Product List | Glossary On
Versions: 1 2 3 4 5 6 7 8 9 10 11 12 13
000
FTUS42 KMHX 251008 AAA
TAFOAJ
TAF AMD
KOAJ 251008Z 2510/2606 VRB02KT 3SM BR SKC
      TEMPO 2510/2512 1SM BR
     FM251200 20009KT P6SM SCT040
      AMD LTD TO CLD VIS AND WIND=

USA.gov is the U.S. government's official web portal to all federal, state and local government web resources and services.